Flight Track Log - Related Links

Times and Time Zones

All times are in EDT time to prevent confusion due to time zone crossing. See the DAL6197 flight status page for this flight to view local times or setup timezone preferences in your user account.


Time Position Orientation Groundspeed Altitude Reporting Facility
EDT Latitude Longitude Course Direction KTS MPH feet Rate Location/Type
Mon 11:27:20 AM 42.9333 -78.7500 216° Southwest 151 174 1,700  Level Buffalo TRACON
Mon 11:28:14 AM 42.9000 -78.7833 216° Southwest 184 212 3,800 2,331 Climbing Buffalo TRACON
Mon 11:29:21 AM 42.8439 -78.7511 157° South 250 288 6,400 2,646 Climbing Cleveland Center
Mon 11:30:21 AM 42.8008 -78.6647 124° Southeast 264 304 9,400 2,400 Climbing Cleveland Center
Mon 11:31:21 AM 42.8008 -78.5572 90° East 288 331 11,200 2,200 Climbing Cleveland Center
Mon 11:32:21 AM 42.8086 -78.4125 86° East 313 360 13,800 2,400 Climbing Cleveland Center
Mon 11:33:21 AM 42.8142 -78.2681 87° East 349 402 16,000 2,100 Climbing Cleveland Center
Mon 11:34:21 AM 42.8194 -78.1150 87° East 384 442 18,000 2,200 Climbing Cleveland Center
Mon 11:35:21 AM 42.8244 -77.9647 87° East 395 455 20,400 2,200 Climbing Cleveland Center
Mon 11:36:21 AM 42.8292 -77.8089 88° East 406 467 22,400 1,900 Climbing Cleveland Center
Mon 11:37:21 AM 42.8336 -77.6500 88° East 411 473 24,200 1,598 Climbing Cleveland Center
Mon 11:39:25 AM 42.8275 -77.3106 91° East 448 516 27,300 1,435 Climbing Boston Center
Mon 11:40:25 AM 42.8222 -77.1428 92° East 448 516 28,600 850 Climbing Boston Center
Mon 11:41:25 AM 42.8125 -76.9722 94° East 453 521 29,000 200 Climbing Boston Center
Mon 11:42:25 AM 42.7514 -76.8261 120° Southeast 434 499 29,000  Level Boston Center
Mon 11:43:25 AM 42.6858 -76.6831 122° Southeast 434 499 29,000  Level Boston Center
Mon 11:44:25 AM 42.6439 -76.5250 110° East 434 499 29,000  Level Boston Center
Mon 11:45:25 AM 42.6206 -76.3569 101° East 442 509 29,000  Level Boston Center
Mon 11:46:25 AM 42.5978 -76.1692 99° East 452 520 29,000  Level Boston Center
Mon 11:47:25 AM 42.5739 -75.9956 101° East 452 520 29,000 -400 Level Boston Center
Mon 11:48:25 AM 42.5500 -75.8225 101° East 452 520 28,200 -850 Descending Boston Center
Mon 11:49:25 AM 42.5258 -75.6519 101° East 452 520 27,300 -1,000 Descending Boston Center
Mon 11:50:25 AM 42.5014 -75.4844 101° East 452 520 26,200 -1,100 Descending Boston Center
Mon 11:51:25 AM 42.4767 -75.3114 101° East 452 520 25,100 -1,100 Descending Boston Center
Mon 11:52:25 AM 42.4308 -75.1433 110° East 452 520 24,000 -1,100 Descending Boston Center
Mon 11:53:25 AM 42.3739 -74.9892 117° Southeast 457 526 22,900 -1,100 Descending Boston Center
Mon 11:54:25 AM 42.3208 -74.8408 116° Southeast 451 519 21,800 -1,050 Descending Boston Center
Mon 11:55:25 AM 42.2653 -74.7014 118° Southeast 440 506 20,800 -1,000 Descending Boston Center
Mon 11:56:37 AM 42.2019 -74.5308 117° Southeast 430 495 19,600 -1,000 Descending Boston Center
Mon 11:57:37 AM 42.1522 -74.3892 115° Southeast 424 488 18,600 -800 Descending Boston Center
Mon 11:58:37 AM 42.1044 -74.2675 118° Southeast 416 479 18,000 -300 Descending Boston Center
Mon 11:59:37 AM 42.0397 -74.1342 123° Southeast 390 449 18,000  Level Boston Center
Mon 12:00:37 PM 41.9789 -74.0153 125° Southeast 390 449 18,000  Level Boston Center
Mon 12:01:37 PM 41.9219 -73.9022 124° Southeast 379 436 18,000 -300 Level Boston Center
Mon 12:02:37 PM 41.8481 -73.8197 140° Southeast 337 388 17,400 -1,000 Descending Boston Center
Mon 12:03:37 PM 41.7564 -73.8175 179° South 318 366 16,000 -1,550 Descending Boston Center
Mon 12:04:37 PM 41.6667 -73.8269 184° South 318 366 14,300 -1,597 Descending Boston Center
Mon 12:05:41 PM 41.5667 -73.8500 190° South 313 360 12,700 -1,500 Descending New York TRACON
Mon 12:06:41 PM 41.4833 -73.8667 189° South 308 354 11,200 -1,400 Descending New York TRACON
Mon 12:07:41 PM 41.4167 -73.8667 180° South 286 329 9,900 -1,450 Descending New York TRACON
Mon 12:08:41 PM 41.3500 -73.8000 143° Southeast 283 326 8,300 -950 Descending New York TRACON
Mon 12:09:41 PM 41.2833 -73.7500 151° Southeast 261 300 8,000 -150 Descending New York TRACON
Mon 12:10:41 PM 41.2333 -73.7000 143° Southeast 236 272 8,000 -600 Level New York TRACON
Mon 12:11:41 PM 41.1833 -73.6500 143° Southeast 221 254 6,800 -1,286 Descending New York TRACON
Mon 12:12:47 PM 41.1167 -73.6500 180° South 206 237 5,300 -1,350 Descending New York TRACON
Mon 12:13:41 PM 41.0667 -73.6333 166° South 202 232 4,100 -1,100 Descending New York TRACON
Mon 12:14:47 PM 41.0167 -73.6833 217° Southwest 203 234 3,100 -524 Descending New York TRACON
Mon 12:15:47 PM 40.9667 -73.7167 207° Southwest 205 236 3,000 -53 Descending New York TRACON
Mon 12:16:41 PM 40.9333 -73.7500 217° Southwest 210 242 3,000 -350 Level New York TRACON
Mon 12:17:47 PM 40.8833 -73.8000 217° Southwest 169 194 2,300 -750 Descending New York TRACON
Mon 12:18:41 PM 40.8500 -73.8167 201° Southwest 146 168 1,500 -789 Descending New York TRACON
Mon 12:19:41 PM 40.8167 -73.8500 217° Southwest 126 145 800 -700 Descending New York TRACON

Login

Don't have an account? Register now (free) for customized features, flight alerts, and more!